Location: North Runcton
(52.7000°N, 0.4333°E)
Time: 22:36:06
(UTC+00:00)

Cosmos 1420 Rocket - Pass Details

Date: 19 May 2025
Orbit: 750 x 777 km, 74.0° (Epoch: 12 June)

Event Time Altitude Azimuth Distance (km) Brightness Sun altitude
Rises 23:32:46 0° 334° (NNW) 3,272 8.6 -17.2°
Reaches altitude 10° 23:35:10 10° 335° (NNW) 2,340 7.6 -17.2°
Maximum altitude 23:40:31 87° 63° (ENE) 785 4.0 -17.2°
Enters shadow 23:43:27 27° 153° (SSE) 1,445 4.9 -17.3°
